Location: B?lite?ti
(46.2833°N, 22.7333°E)
Time: 17:31:37
(UTC+00:00)

Cosmos 990 Rocket - Pass Details

Date: 24 January 2021
Orbit: 748 x 768 km, 74.0° (Epoch: 01 March)

Event Time Altitude Azimuth Distance (km) Brightness Sun altitude
Rises 16:50:23 0° 194° (SSW) 3,210 7.6 -15.2°
Reaches altitude 10° 16:52:45 10° 193° (SSW) 2,286 6.8 -15.6°
Maximum altitude 16:57:55 74° 109° (ESE) 792 3.9 -16.4°
Enters shadow 17:02:44 12° 25° (NNE) 2,153 6.0 -17.3°
